EW7207 Weather Reports


time (UTC)temp
F
wind
direction
speed
knots
gust
knots
rain 1hr
in
rain 24hr
in
rain mn
in
humidity
%
barometer
mb
20260510142007 61 229 0.9 3.5 0.00 0.30 0.00 83 1048.3
20260510141052 60 183 1.7 3.5 0.00 0.30 0.00 84 1048.3
20260510135050 59 241 0.9 2.6 0.00 0.30 0.00 87 1048.2
20260510134051 58 180 0.9 2.6 0.00 0.30 0.00 91 1048.1
20260510133149 57 257 1.7 2.6 0.00 0.30 0.00 93 1048.2
20260510131153 55 247 2.6 3.5 0.00 0.30 0.00 96 1048.2
20260510130151 54 263 2.6 3.5 0.00 0.30 0.00 97 1048.1
20260510125152 54 270 0.0 0.9 0.00 0.30 0.00 97 1048.4
20260510123250 52 265 0.0 2.6 0.00 0.30 0.00 97 1048.1
20260510122252 52 281 0.9 1.7 0.00 0.30 0.00 97 1047.7
20260510121251 52 315 0.0 0.0 0.00 0.30 0.00 98 1047.6
20260510120253 52 45 0.0 0.0 0.00 0.30 0.00 97 1047.4
20260510115252 51 38 0.0 1.7 0.00 0.30 0.00 97 1047.3
20260510114252 51 45 1.7 1.7 0.00 0.30 0.00 97 1046.9
20260510113349 51 45 1.7 2.6 0.00 0.30 0.00 97 1047.0
20260510112351 51 315 0.0 0.9 0.00 0.30 0.00 98 1047.0
20260510111350 51 225 0.0 0.0 0.00 0.30 0.00 98 1046.6
20260510110351 51 115 0.9 2.6 0.00 0.30 0.00 98 1046.6
20260510105450 51 67 0.0 0.0 0.00 0.30 0.00 97 1046.7
20260510104453 50 157 0.0 0.0 0.00 0.30 0.00 98 1046.8
20260510104351 50 157 0.0 0.0 0.00 0.30 0.00 98 1046.8
20260510102350 50 180 0.9 2.6 0.00 0.30 0.00 97 1046.6
20260510094551 51 180 0.0 0.0 0.00 0.30 0.00 97 1046.1
20260510093650 51 180 0.0 0.0 0.00 0.30 0.00 97 1046.3
20260510092651 51 180 0.0 0.0 0.00 0.30 0.00 97 1046.1
20260510091750 51 112 0.0 0.0 0.00 0.30 0.00 97 1046.2
20260510085850 51 112 0.0 0.0 0.00 0.30 0.00 97 1046.4
20260510084852 51 112 0.0 0.0 0.00 0.30 0.00 97 1046.4
20260510083949 51 112 0.0 0.0 0.00 0.30 0.00 97 1046.4
20260510082951 51 135 0.9 1.7 0.00 0.30 0.00 97 1046.5
20260510081951 51 358 0.0 0.9 0.00 0.30 0.00 97 1046.6
20260510080951 51 7 1.7 2.6 0.00 0.30 0.00 97 1046.5
20260510073052 50 15 0.0 1.7 0.00 0.30 0.00 97 1045.9
20260510072051 51 45 0.0 0.0 0.00 0.30 0.00 97 1045.6
20260510071051 51 45 0.0 0.0 0.00 0.30 0.00 97 1045.7
20260510070052 51 45 0.0 0.0 0.00 0.30 0.00 97 1045.7
20260510064150 51 45 0.0 0.0 0.00 0.30 0.00 97 1045.8
20260510063152 51 45 0.0 0.0 0.00 0.30 0.00 97 1045.9
20260510062150 51 38 0.9 3.5 0.00 0.30 0.00 97 1046.1
20260510061150 50 5 0.9 4.3 0.00 0.30 0.00 96 1046.1
20260510060152 50 360 0.0 0.0 0.00 0.30 0.00 96 1045.9
20260510055151 50 360 0.0 0.0 0.00 0.30 0.00 96 1045.7
20260510054153 50 360 0.0 0.0 0.00 0.30 0.00 96 1045.5
20260510053250 50 360 0.0 0.0 0.00 0.30 0.00 96 1045.7
20260510052251 50 360 0.0 0.0 0.00 0.30 0.00 96 1045.7
20260510051251 50 360 0.0 0.0 0.00 0.30 0.00 96 1045.7
20260510050349 50 360 0.0 0.0 0.00 0.30 0.00 96 1045.8
20260510045351 50 360 0.0 0.0 0.00 0.30 0.00 96 1045.9
20260510044352 50 360 0.0 0.0 0.00 0.30 0.00 96 1045.8
20260510043451 50 360 0.0 0.0 0.00 0.30 0.00 96 1046.0
20260510042550 50 360 0.0 0.0 0.00 0.30 0.00 96 1046.0
20260510040552 50 360 0.0 0.0 0.00 0.30 0.00 96 1045.7
20260510035632 50 360 0.0 0.0 0.00 0.30 0.30 96 1045.6
20260510034632 50 360 0.0 0.0 0.00 0.30 0.30 96 1045.8
20260510033730 50 360 0.0 0.0 0.00 0.30 0.30 96 1045.8
20260510031732 50 360 0.0 0.0 0.00 0.30 0.30 96 1045.7
20260510030831 50 360 0.0 0.0 0.00 0.30 0.30 95 1045.6
20260510025832 50 360 0.0 0.0 0.00 0.30 0.30 95 1045.5
20260510024832 50 360 0.0 0.0 0.00 0.30 0.30 95 1045.6
20260510023833 50 360 0.0 0.9 0.00 0.30 0.30 95 1045.5
20260510022931 50 45 0.0 0.0 0.00 0.30 0.30 95 1045.5
20260510021932 51 45 0.0 0.0 0.00 0.30 0.30 95 1045.4
20260510020932 51 45 0.0 0.0 0.00 0.30 0.30 94 1045.5
20260510015934 51 45 0.0 0.0 0.00 0.30 0.30 94 1045.6
20260510014935 51 45 0.0 0.0 0.00 0.30 0.30 94 1045.4
20260510014032 52 67 0.0 0.0 0.00 0.30 0.30 94 1045.4
20260510013131 52 67 0.0 0.0 0.00 0.30 0.30 94 1045.4
20260510012133 52 67 0.0 0.0 0.00 0.30 0.30 94 1045.5
20260510011134 52 76 1.7 2.6 0.00 0.30 0.30 93 1045.3
20260510010230 53 90 0.9 1.7 0.00 0.30 0.30 93 1045.3
20260510004235 53 90 0.0 1.7 0.00 0.30 0.30 93 1045.0
20260510003331 53 79 1.7 3.5 0.00 0.30 0.30 93 1044.8
20260510002330 53 67 0.9 0.9 0.00 0.30 0.30 92 1044.7
20260510001332 54 111 0.9 2.6 0.00 0.30 0.30 92 1044.8
20260510000333 54 138 2.6 4.3 0.00 0.30 0.30 91 1044.7
20260509235330 54 135 0.9 1.7 0.00 0.30 0.30 91 1044.7
20260509234331 55 135 0.0 0.9 0.00 0.30 0.30 90 1044.8
20260509233331 55 157 0.0 1.7 0.00 0.30 0.30 90 1044.6
20260509232330 56 140 0.9 4.3 0.00 0.30 0.30 89 1044.8
20260509231333 56 157 0.0 1.7 0.00 0.30 0.30 88 1044.7
20260509230431 57 155 2.6 3.5 0.00 0.30 0.30 88 1044.7
20260509225431 57 135 0.0 1.7 0.00 0.30 0.30 87 1044.6
20260509224432 56 170 2.6 3.5 0.00 0.30 0.30 88 1044.8
20260509222531 57 180 0.9 1.7 0.00 0.30 0.30 87 1044.8
20260509221532 56 180 1.7 2.6 0.00 0.30 0.30 88 1044.8
20260509220531 57 157 2.6 3.5 0.00 0.30 0.30 88 1044.8
20260509215532 57 135 0.0 1.7 0.00 0.30 0.30 87 1044.7
20260509213531 57 315 0.0 0.0 0.00 0.30 0.30 84 1044.8
20260509212531 57 2 0.9 1.7 0.00 0.30 0.30 85 1044.8
20260509211532 57 312 0.9 2.6 0.00 0.30 0.30 87 1045.1
20260509210532 56 273 0.9 1.7 0.02 0.30 0.30 89 1045.2
20260509205631 55 315 0.0 0.9 0.03 0.30 0.30 91 1045.0
20260509204632 54 270 0.0 0.0 0.03 0.30 0.30 92 1045.0
20260509203731 54 270 0.0 0.9 0.04 0.30 0.30 93 1045.0
20260509202733 53 157 0.0 0.9 0.04 0.30 0.30 93 1044.9
20260509201733 54 180 0.0 0.9 0.05 0.30 0.30 92 1045.0
20260509195832 54 112 0.0 0.0 0.07 0.27 0.27 92 1045.1
20260509194931 53 103 0.0 0.9 0.09 0.27 0.27 92 1045.2
20260509193032 53 22 0.0 0.0 0.12 0.26 0.26 92 1045.7
20260509192031 53 40 1.7 1.7 0.14 0.26 0.25 91 1046.0
20260509191030 53 337 0.0 0.0 0.13 0.23 0.23 91 1046.4
20260509190032 54 360 0.9 1.7 0.12 0.20 0.20 91 1046.2
20260509185031 54 22 0.0 0.9 0.12 0.18 0.18 91 1046.5
20260509184032 54 337 0.9 1.7 0.10 0.16 0.16 91 1046.6
20260509183032 54 360 0.0 0.9 0.10 0.14 0.14 90 1046.6
20260509182032 54 337 0.0 0.0 0.09 0.12 0.12 90 1046.8
20260509181033 55 360 0.0 0.0 0.08 0.10 0.10 90 1046.6
20260509180132 55 337 0.0 0.0 0.08 0.08 0.08 89 1046.5
20260509175132 55 339 0.0 0.9 0.07 0.07 0.06 89 1046.5
20260509174231 55 360 0.0 0.9 0.06 0.06 0.06 89 1046.6
20260509173232 55 45 0.0 0.0 0.05 0.05 0.04 88 1046.4
20260509171331 56 337 0.0 0.0 0.02 0.02 0.02 83 1047.0
20260509170332 57 247 2.6 3.5 0.01 0.01 0.01 81 1047.0
20260509165333 57 266 4.3 5.2 0.00 0.00 0.00 79 1046.8
20260509164430 57 289 3.5 5.2 0.00 0.00 0.00 78 1046.8
20260509163432 58 292 0.9 2.6 0.00 0.00 0.00 77 1046.8
20260509161532 58 264 4.3 5.2 0.00 0.00 0.00 75 1047.0
20260509160531 58 272 2.6 5.2 0.00 0.00 0.00 76 1047.1
20260509155630 58 262 5.2 8.7 0.00 0.00 0.00 76 1047.3
20260509154632 58 291 4.3 5.2 0.00 0.00 0.00 78 1047.2
20260509153633 58 282 1.7 2.6 0.00 0.00 0.00 79 1047.3
20260509151734 57 218 0.0 1.7 0.00 0.00 0.00 78 1047.0
20260509150830 57 202 1.7 2.6 0.00 0.00 0.00 79 1047.1
20260509144832 57 157 0.0 0.0 0.00 0.00 0.00 80 1047.1
20260509143835 56 157 0.0 0.0 0.00 0.00 0.00 78 1047.1
20260509142931 56 157 0.0 0.0 0.00 0.00 0.00 78 1047.1